Lakeville, MN

1:53 AM CST on December 08, 2016 (GMT -0600)
Airlake

Weather History for KLVN - August, 2012

Change the Weather History Date:

Saturday, August 25, 2012

  Actual Average Record
Temperature  
Mean Temperature 64 °F -  
Max Temperature 69 °F 79 °F 95 °F (1949)
Min Temperature 60 °F 57 °F 44 °F (1958)
Growing Degree Days 14 (Base 50)    
Moisture  
Dew Point 63 °F    
Average Humidity 90    
Maximum Humidity 100    
Minimum Humidity 73    
Precipitation  
Precipitation 0.14 in - - ()
Sea Level Pressure  
Sea Level Pressure 29.94 in    
Wind  
Wind Speed 1 mph (South)    
Max Wind Speed 8 mph    
Max Gust Speed -    
Visibility 9 miles    
Events Rain    
Averages and records for this station are not official NWS values.
T = Trace of Precipitation, MM = Missing Value Source: NWS Daily Summary

Daily Weather History Graph

Daily Weather History Graph

Search for Another Location

Airport or City:

Trip Planner

Search our weather history database for the weather conditions in past years. The results will help you decide how hot, cold, wet, or windy it might be!

Date:

Astronomy

Aug. 25, 2012 Rise Set
Actual Time 6:27 AM CDT 8:01 PM CDT
Civil Twilight 5:57 AM CDT 8:31 PM CDT
Nautical Twilight 5:19 AM CDT 9:08 PM CDT
Astronomical Twilight 4:40 AM CDT 9:48 PM CDT
Moon 3:43 PM CDT (8/25) 12:04 AM CDT (8/25)
Length of Visible Light 14h 34m
Length of Day
13h 33m
Waxing Gibbous, 63% of the Moon is Illuminated
Aug 25
Waxing Gibbous
Aug 31
Full
Sep 8
Last Quarter
Sep 15
New
Sep 22
First Quarter

Hourly Weather History & Observations

Time (CDT) Temp. Dew Point Humidity Pressure Visibility Wind Dir Wind Speed Gust Speed Precip Events Conditions
12:13 AM 69.8 °F 60.8 °F 73% 29.89 in 10.0 mi Calm Calm - N/A   Clear
12:32 AM 68.0 °F 60.8 °F 78% 29.90 in 10.0 mi Calm Calm - N/A   Clear
12:52 AM 66.2 °F 60.8 °F 83% 29.90 in 10.0 mi Calm Calm - N/A   Clear
1:13 AM 66.2 °F 60.8 °F 83% 29.90 in 10.0 mi Calm Calm - N/A   Clear
1:32 AM 64.4 °F 60.8 °F 88% 29.91 in 10.0 mi Calm Calm - N/A   Clear
1:52 AM 64.4 °F 60.8 °F 88% 29.91 in 10.0 mi Calm Calm - N/A   Clear
2:13 AM 66.2 °F 60.8 °F 83% 29.90 in 10.0 mi Calm Calm - N/A   Clear
2:32 AM 64.4 °F 60.8 °F 88% 29.91 in 10.0 mi Calm Calm - N/A   Clear
2:52 AM 64.4 °F 60.8 °F 88% 29.91 in 10.0 mi Calm Calm - N/A   Clear
3:13 AM 62.6 °F 60.8 °F 94% 29.90 in 10.0 mi Calm Calm - N/A   Clear
3:53 AM 60.8 °F 60.8 °F 100% 29.90 in 10.0 mi Calm Calm - N/A   Clear
4:12 AM 62.6 °F 60.8 °F 94% 29.90 in 10.0 mi Calm Calm - N/A   Clear
4:32 AM 62.6 °F 60.8 °F 94% 29.90 in 10.0 mi SSE 3.5 mph - N/A   Clear
4:53 AM 62.6 °F 60.8 °F 94% 29.90 in 10.0 mi Calm Calm - N/A   Clear
5:12 AM 62.6 °F 60.8 °F 94% 29.90 in 10.0 mi Calm Calm - N/A   Scattered Clouds
5:32 AM 62.6 °F 60.8 °F 94% 29.91 in 10.0 mi Calm Calm - N/A   Scattered Clouds
5:53 AM 60.8 °F 60.8 °F 100% 29.90 in 7.0 mi Calm Calm - N/A   Clear
6:12 AM 60.8 °F 59.0 °F 94% 29.91 in 5.0 mi Calm Calm - N/A   Clear
6:32 AM 60.8 °F 60.8 °F 100% 29.91 in 7.0 mi Calm Calm - N/A   Clear
6:52 AM 60.8 °F 60.8 °F 100% 29.92 in 7.0 mi Calm Calm - N/A   Clear
7:12 AM 62.6 °F 60.8 °F 94% 29.92 in 7.0 mi SSE 3.5 mph - N/A   Clear
7:33 AM 64.4 °F 62.6 °F 94% 29.93 in 7.0 mi Calm Calm - N/A   Scattered Clouds
7:53 AM 66.2 °F 62.6 °F 88% 29.93 in 10.0 mi Calm Calm - N/A   Scattered Clouds
8:12 AM 66.2 °F 62.6 °F 88% 29.93 in 10.0 mi Calm Calm - N/A   Clear
8:32 AM 66.2 °F 62.6 °F 88% 29.94 in 10.0 mi Calm Calm - N/A   Mostly Cloudy
8:52 AM 68.0 °F 62.6 °F 83% 29.94 in 10.0 mi South 3.5 mph - N/A   Scattered Clouds
9:13 AM 68.0 °F 62.6 °F 83% 29.94 in 10.0 mi Calm Calm - N/A   Clear
9:32 AM 69.8 °F 64.4 °F 83% 29.95 in 10.0 mi Calm Calm - N/A   Clear
9:52 AM 69.8 °F 64.4 °F 83% 29.95 in 10.0 mi Calm Calm - N/A   Clear
10:13 AM 69.8 °F 64.4 °F 83% 29.95 in 10.0 mi WSW 8.1 mph - N/A   Clear
10:32 AM 69.8 °F 62.6 °F 78% 29.96 in 10.0 mi WSW 8.1 mph - N/A   Clear
10:52 AM 69.8 °F 62.6 °F 78% 29.96 in 10.0 mi WSW 5.8 mph - N/A   Scattered Clouds
11:13 AM 69.8 °F 62.6 °F 78% 29.96 in 10.0 mi WSW 4.6 mph - N/A   Clear
11:32 AM 69.8 °F 62.6 °F 78% 29.96 in 10.0 mi WSW 3.5 mph - N/A   Clear
11:52 AM 69.8 °F 62.6 °F 78% 29.96 in 10.0 mi West 3.5 mph - N/A Rain Light Rain
12:13 PM 69.8 °F 62.6 °F 78% 29.96 in 10.0 mi WSW 5.8 mph - N/A   Clear
12:32 PM 68.0 °F 64.4 °F 88% 29.96 in 10.0 mi Calm Calm - N/A Rain Light Rain
12:52 PM 66.2 °F 64.4 °F 94% 29.96 in 10.0 mi WNW 3.5 mph - N/A Rain Light Rain
1:13 PM 68.0 °F 64.4 °F 88% 29.97 in 10.0 mi Calm Calm - N/A   Scattered Clouds
1:32 PM 68.0 °F 64.4 °F 88% 29.97 in 10.0 mi Calm Calm - N/A Rain Light Rain
1:52 PM 68.0 °F 64.4 °F 88% 29.97 in 10.0 mi Calm Calm - N/A Rain Light Rain
2:12 PM 69.8 °F 66.2 °F 88% 29.97 in 10.0 mi Calm Calm - N/A   Scattered Clouds
2:32 PM 69.8 °F 66.2 °F 88% 29.97 in 10.0 mi SSE 3.5 mph - N/A Rain Light Rain
2:53 PM 69.8 °F 66.2 °F 88% 29.97 in 10.0 mi South 3.5 mph - N/A Rain Light Rain
3:12 PM 69.8 °F 66.2 °F 88% 29.96 in 7.0 mi South 3.5 mph - N/A   Light Drizzle
3:32 PM 69.8 °F 66.2 °F 88% 29.97 in 10.0 mi Calm Calm - N/A   Overcast
3:53 PM 69.8 °F 66.2 °F 88% 29.97 in 7.0 mi Calm Calm - N/A   Mostly Cloudy
4:12 PM 69.8 °F 66.2 °F 88% 29.97 in 7.0 mi Calm Calm - N/A   Mostly Cloudy
4:32 PM 69.8 °F 66.2 °F 88% 29.97 in 7.0 mi South 3.5 mph - 0.02 in Rain Rain
4:52 PM 68.0 °F 66.2 °F 94% 29.97 in 10.0 mi Calm Calm - 0.04 in Rain Light Rain
5:12 PM 68.0 °F 66.2 °F 94% 29.97 in 5.0 mi Calm Calm - 0.01 in Rain Heavy Rain
5:33 PM 68.0 °F 66.2 °F 94% 29.97 in 5.0 mi Calm Calm - 0.04 in Rain Rain
5:52 PM 68.0 °F 66.2 °F 94% 29.97 in 7.0 mi ESE 3.5 mph - 0.06 in Rain Light Rain
6:12 PM 68.0 °F 66.2 °F 94% 29.96 in 5.0 mi Calm Calm - 0.02 in Rain Light Rain
6:33 PM 68.0 °F 66.2 °F 94% 29.96 in 10.0 mi Calm Calm - 0.03 in   Light Drizzle
6:52 PM 68.0 °F 66.2 °F 94% 29.95 in 5.0 mi Calm Calm - 0.03 in   Drizzle
7:13 PM 66.2 °F 66.2 °F 100% 29.95 in 5.0 mi ESE 3.5 mph - 0.01 in Rain Light Rain
7:32 PM 66.2 °F 64.4 °F 94% 29.95 in 5.0 mi Calm Calm - 0.01 in   Light Drizzle
7:52 PM 66.2 °F 64.4 °F 94% 29.95 in 10.0 mi SSE 3.5 mph - 0.01 in   Scattered Clouds
8:13 PM 66.2 °F 64.4 °F 94% 29.95 in 7.0 mi Calm Calm - N/A   Mostly Cloudy
8:32 PM 64.4 °F 62.6 °F 94% 29.95 in 7.0 mi Calm Calm - N/A   Scattered Clouds
8:52 PM 64.4 °F 62.6 °F 94% 29.96 in 7.0 mi SE 3.5 mph - N/A   Scattered Clouds
9:13 PM 64.4 °F 62.6 °F 94% 29.95 in 7.0 mi SE 3.5 mph - N/A   Mostly Cloudy
9:32 PM 64.4 °F 62.6 °F 94% 29.96 in 7.0 mi SSE 3.5 mph - N/A   Overcast
9:52 PM 64.4 °F 64.4 °F 100% 29.96 in 7.0 mi Calm Calm - N/A   Overcast
10:13 PM 64.4 °F 64.4 °F 100% 29.96 in 7.0 mi Calm Calm - N/A   Overcast
10:32 PM 64.4 °F 64.4 °F 100% 29.96 in 7.0 mi Calm Calm - N/A   Overcast
10:52 PM 64.4 °F 64.4 °F 100% 29.96 in 7.0 mi Calm Calm - N/A   Overcast
11:53 PM 64.4 °F 64.4 °F 100% 29.95 in 5.0 mi Calm Calm - N/A   Overcast